Wind_Speed
14 14 15 15 16 16 16 17 17 16 16 15 15 13 11 9 6 4 3 2 2 3 3 4 5 5 5 4 5 5 6 6 6 6 8 9 10 11 10 10 9 8 7 7 6 5 4 3 3 3 3 1 3 11 11 6 3 2 2 3 2 3 1 2 5 6 7 5 4 5 5 6 6 6 6 5 5 4 5 5 4 4 3 3 2 1 1 1
12 13 13 14 15 15 15 16 16 16 16 15 15 14 13 12 10 8 5 4 3 3 3 4 4 5 6 6 6 5 6 6 6 6 6 7 8 9 9 10 10 9 8 8 7 6 5 4 3 4 4 3 6 9 10 8 4 6 5 2 1 3 2 3 5 3 4 6 4 4 4 5 5 6 6 5 5 5 5 5 4 4 4 4 2 1 2 1
10 11 12 13 13 14 14 15 15 15 15 15 15 14 14 13 12 10 9 7 5 4 3 4 5 5 6 7 7 7 6 6 6 7 7 7 6 7 8 9 9 10 9 8 8 7 6 4 3 3 4 6 6 5 8 8 5 7 6 0 2 4 3 3 5 3 3 5 5 4 4 3 4 5 5 4 5 5 5 5 4 4 4 4 3 2 2 2
8 9 10 11 12 12 13 13 14 14 15 15 15 14 14 13 12 11 10 9 7 6 4 4 5 5 5 7 7 8 7 6 7 7 7 7 6 6 6 7 8 10 10 9 9 7 7 5 4 3 4 8 5 5 9 7 4 7 4 1 2 4 4 4 4 5 4 4 6 4 4 3 3 4 4 3 5 6 5 4 3 4 4 4 3 2 2 2
5 7 8 9 10 11 12 12 13 13 14 14 14 14 14 13 13 12 11 10 9 7 6 5 5 5 5 6 7 7 8 7 7 7 7 6 6 5 5 6 7 9 10 10 9 8 8 6 5 4 4 8 6 6 10 6 1 6 4 3 1 4 3 4 3 4 4 4 4 2 3 2 2 3 3 4 5 5 5 4 3 4 4 4 4 3 2 2
4 5 6 8 9 10 10 11 12 13 13 14 14 14 13 13 13 12 12 11 10 9 8 6 5 6 6 6 7 7 7 8 7 7 7 7 6 5 5 5 6 8 8 9 10 9 9 7 6 5 4 7 8 7 8 5 3 7 4 4 1 2 2 3 1 2 2 3 3 3 2 2 1 2 3 4 5 4 4 4 3 4 5 4 3 3 2 2
3 3 4 6 7 8 9 10 11 12 12 13 13 14 14 13 13 13 13 12 11 10 9 8 7 6 7 7 8 7 7 8 8 8 8 7 6 5 5 5 6 7 7 8 9 9 9 8 8 7 6 8 8 8 9 8 5 5 2 3 3 0 3 3 1 1 2 3 2 4 5 4 1 2 3 2 4 4 4 4 3 4 4 4 3 2 2 1
2 3 3 5 6 7 8 9 10 11 11 12 13 14 14 14 14 13 13 13 12 11 11 9 8 7 7 8 9 8 7 8 8 7 8 8 7 5 5 5 6 6 7 8 8 9 10 9 10 9 8 9 8 7 8 9 6 4 2 2 3 1 1 2 4 4 5 3 2 5 7 5 3 3 3 1 3 3 3 4 3 3 3 3 3 2 2 1
2 2 3 4 5 6 7 8 9 10 11 11 13 13 14 15 14 14 14 13 12 12 11 11 10 9 8 8 9 8 8 9 7 7 8 8 7 6 5 5 6 7 7 7 8 9 10 10 10 10 10 10 9 7 8 9 5 4 2 2 3 4 7 9 8 7 6 4 4 5 6 4 2 4 4 2 2 2 3 4 3 3 3 2 2 2 1 1
2 2 3 4 5 6 7 8 8 9 10 11 12 13 14 15 15 15 14 14 13 13 12 12 11 10 9 8 8 8 9 9 8 8 8 8 8 7 6 5 6 7 7 8 8 8 9 11 11 11 11 11 11 9 9 9 4 4 5 6 7 5 7 9 6 6 7 7 7 6 5 4 2 5 5 3 3 1 2 3 3 2 2 2 2 2 1 1
2 3 3 4 5 6 6 7 8 9 9 10 11 12 14 15 16 16 15 14 14 13 13 12 12 11 10 9 9 9 8 9 9 8 8 8 8 8 7 6 6 7 7 8 9 9 9 11 11 12 12 12 13 9 8 8 5 6 7 7 7 7 7 7 6 6 6 7 7 7 7 6 5 6 6 5 5 2 1 2 3 1 2 3 3 2 1 1
3 3 4 5 5 6 6 7 8 9 9 10 11 12 13 14 16 16 16 15 15 14 14 13 12 12 12 10 10 9 8 8 9 8 8 8 8 8 8 7 6 7 7 8 9 10 10 11 12 12 11 12 12 9 8 8 5 6 7 7 7 8 6 6 8 6 5 8 8 7 7 8 10 8 7 7 6 4 3 0 1 1 2 4 3 3 2 1
3 4 4 5 6 6 7 7 8 8 9 10 11 12 12 14 15 16 16 16 16 15 14 13 13 12 13 12 11 9 8 8 9 8 8 8 9 9 8 8 7 8 8 9 9 10 10 11 11 11 11 12 11 8 9 8 6 5 6 7 7 9 6 4 7 8 6 8 9 8 7 8 11 10 7 7 6 6 5 2 1 0 2 3 3 3 3 2
5 5 5 6 7 7 8 8 8 9 9 10 11 11 12 13 14 16 17 17 16 16 15 14 13 13 13 13 11 10 9 9 9 9 8 8 9 9 8 8 8 9 10 10 9 9 9 9 10 11 11 11 10 8 8 7 7 6 5 6 7 8 7 4 6 8 7 7 9 8 8 8 9 11 8 6 7 6 5 3 1 1 2 2 3 3 2 1
7 7 7 7 8 8 9 9 9 10 10 11 11 12 12 12 13 15 16 17 17 17 16 15 15 14 13 12 12 11 11 9 8 8 8 8 9 9 9 8 9 11 11 11 10 9 8 8 9 9 9 9 10 8 6 6 8 7 6 7 7 7 8 8 8 8 8 8 8 8 8 8 8 12 10 5 7 5 3 4 3 1 2 2 3 3 2 2
9 9 9 9 9 10 10 10 11 11 11 11 12 12 12 12 13 14 15 16 17 17 17 16 16 15 13 13 12 12 11 10 8 8 8 9 9 9 9 9 10 11 12 12 11 10 8 7 8 8 8 8 9 8 7 7 7 8 8 8 7 6 8 10 9 9 8 8 8 8 8 7 8 12 12 5 5 4 4 5 4 2 2 3 3 3 2 3
11 11 11 11 11 11 12 12 12 12 12 12 12 13 12 13 13 13 14 15 16 17 17 17 17 15 14 13 12 12 11 10 9 8 8 9 9 9 10 9 10 11 13 13 12 11 9 7 7 8 8 8 8 8 7 6 6 7 8 8 7 6 8 9 8 10 9 7 8 8 8 8 8 9 11 6 4 5 6 6 5 3 2 3 3 3 2 3
13 13 13 13 13 13 13 13 14 13 13 14 13 13 13 13 13 14 14 15 16 17 17 18 18 16 16 15 13 12 11 10 10 9 8 9 9 9 9 8 10 11 12 13 12 12 10 8 8 7 8 8 5 3 4 5 6 7 8 9 5 2 6 9 6 9 11 9 9 10 9 9 7 6 8 7 4 5 7 6 6 4 3 4 4 4 4 3
14 15 15 15 15 14 14 15 15 15 15 15 15 14 14 14 14 14 14 15 16 17 17 17 18 17 16 16 14 13 12 11 10 9 9 9 9 9 9 8 10 10 11 12 12 12 11 10 7 6 7 3 3 6 8 9 8 8 8 10 7 1 4 8 6 9 12 13 12 11 9 7 6 6 7 8 5 6 7 7 6 5 5 5 4 5 4 3
16 16 16 17 17 16 16 16 16 16 16 16 16 16 15 15 15 14 15 16 16 17 17 17 18 18 17 16 15 14 12 11 11 10 9 9 8 9 9 9 9 9 10 11 11 12 11 11 9 8 7 11 5 9 8 9 9 5 7 11 8 3 6 8 9 10 11 13 14 10 8 7 7 7 7 9 7 6 7 7 7 7 6 5 4 5 4 4
17 18 18 18 18 18 18 18 18 17 17 17 17 17 17 16 16 16 16 16 16 17 17 18 18 18 17 16 15 14 12 12 12 11 10 9 8 9 8 8 8 8 9 10 11 11 9 10 8 7 9 12 5 16 13 17 18 9 8 9 4 5 10 13 14 13 10 12 13 11 9 7 7 8 8 10 9 8 7 8 9 8 7 6 5 6 5 5
19 19 19 19 20 20 20 20 20 19 19 19 18 18 19 18 18 18 17 16 17 17 18 18 18 18 18 17 15 13 13 13 13 12 11 10 9 8 8 8 8 8 8 9 10 10 8 6 6 8 10 10 14 21 20 24 24 16 11 6 3 4 11 16 18 15 11 10 11 11 11 8 7 8 9 11 12 9 8 9 10 10 9 7 6 6 6 6
20 20 20 20 21 21 21 21 21 21 20 20 20 20 20 20 20 19 19 18 18 19 19 19 18 17 16 15 15 13 12 13 13 12 11 10 9 9 9 8 9 8 8 8 8 10 5 2 5 7 4 8 15 18 21 24 21 16 13 8 3 6 8 12 15 12 8 8 8 10 12 10 8 8 11 14 15 12 11 12 12 12 11 9 7 7 7 7
21 21 20 20 20 21 21 21 22 22 21 21 21 21 21 22 21 20 20 19 19 20 19 19 18 16 15 14 14 12 13 13 12 12 11 10 10 10 9 8 9 8 8 9 8 10 5 5 7 11 6 11 15 11 15 19 14 10 11 10 8 10 8 10 14 9 6 8 8 8 11 12 9 9 12 13 11 9 10 13 14 13 12 11 8 8 8 8
21 20 20 20 20 20 21 22 22 23 23 22 22 22 22 22 22 22 21 21 21 21 19 18 16 14 14 13 13 13 14 13 12 12 11 10 10 9 10 9 9 8 8 9 8 8 7 7 10 13 12 15 14 11 11 10 8 7 7 10 14 14 11 13 17 13 9 9 9 8 9 12 11 10 13 12 10 8 8 12 17 15 12 12 10 9 9 8
21 22 23 23 23 24 24 24 26 25 25 25 24 24 23 23 23 23 23 21 23 23 18 17 16 15 15 14 13 14 15 13 12 12 11 10 9 9 10 9 9 9 8 10 9 7 9 9 9 9 9 11 11 12 11 9 7 4 5 7 8 14 13 13 16 17 16 12 10 10 10 13 13 11 14 13 12 13 12 10 16 16 12 14 13 11 11 9
25 26 27 28 28 28 28 27 28 29 28 27 27 26 25 25 24 24 24 21 22 25 19 16 18 17 16 14 14 16 15 14 13 11 10 9 8 9 9 9 9 9 8 8 7 8 11 12 11 10 7 8 9 8 8 7 5 5 10 12 8 6 9 14 15 15 16 12 10 11 11 13 14 11 12 13 12 13 14 11 15 18 14 14 14 12 11 9
30 30 31 33 32 32 32 30 30 31 29 28 28 27 26 27 26 26 25 22 23 26 21 17 17 18 16 14 15 16 14 14 14 11 10 10 8 8 8 8 8 8 8 6 4 8 13 12 13 11 7 7 7 3 3 6 4 10 13 14 13 12 6 7 15 14 12 11 11 12 11 12 15 12 11 11 12 12 12 11 13 18 15 14 14 13 12 12
34 33 33 36 35 33 34 31 30 31 30 29 29 29 28 28 28 27 25 24 25 27 24 19 17 18 18 16 15 15 13 13 14 12 11 10 8 8 8 8 8 7 7 8 7 8 10 8 8 8 6 4 3 2 6 6 9 13 14 17 17 14 8 12 17 15 10 11 12 13 12 13 16 14 10 10 11 12 11 9 11 16 16 15 15 14 13 13
34 33 34 36 36 34 34 32 31 31 31 31 29 30 30 29 29 28 27 26 25 27 26 20 17 18 18 16 15 14 13 13 13 13 12 10 9 9 9 8 8 7 7 8 9 9 9 8 8 8 6 4 4 10 10 8 13 13 11 9 6 10 12 11 12 11 9 10 11 12 12 12 15 15 12 12 11 10 9 8 8 13 15 15 15 15 15 13
33 32 32 35 35 33 32 31 31 31 30 29 28 28 27 27 28 27 27 24 21 26 27 22 21 19 16 15 15 14 14 14 13 13 12 11 9 9 10 9 7 7 6 5 7 9 10 9 8 8 9 7 7 10 7 7 13 12 8 4 5 10 11 6 7 10 9 10 11 12 12 12 15 16 13 13 12 9 9 8 7 10 14 16 17 17 16 14
30 29 30 31 32 31 29 27 28 27 26 24 24 24 23 25 25 23 23 19 18 23 25 26 25 18 14 16 16 15 14 15 14 11 11 12 10 9 10 9 7 6 4 2 4 8 11 7 5 6 8 9 7 6 4 5 8 8 8 6 7 9 7 5 7 8 7 9 10 10 10 11 15 17 15 14 13 13 11 9 8 8 11 14 18 19 16 15
28 28 29 29 30 30 27 25 24 23 22 21 21 21 21 23 21 18 17 16 17 17 15 20 24 20 16 15 17 17 13 14 15 11 10 12 10 10 9 8 7 7 4 2 2 8 14 13 16 17 10 9 6 6 5 4 4 5 5 6 6 5 5 6 6 5 6 7 7 8 7 9 14 15 13 13 13 13 12 9 7 8 9 10 14 16 16 17
28 27 28 28 28 29 27 25 23 22 22 22 21 21 21 20 17 15 15 13 14 16 16 18 21 26 24 15 15 19 13 12 16 12 10 12 11 9 8 8 7 7 6 5 5 5 10 18 28 23 10 10 7 9 11 8 5 5 5 6 7 6 6 6 7 7 6 5 5 7 6 7 12 14 12 12 13 11 11 11 9 7 8 9 10 11 13 16
28 27 28 28 28 28 28 26 25 24 24 23 23 22 20 17 14 13 13 10 7 12 24 25 20 23 26 18 13 15 13 11 17 17 10 8 9 9 7 7 8 7 7 8 5 10 10 13 24 13 5 9 7 10 12 8 5 9 8 5 5 8 9 7 7 8 7 7 6 7 7 7 12 15 12 12 12 11 12 13 12 10 10 11 12 12 12 12
29 28 27 27 27 27 27 27 26 26 26 26 26 23 19 17 15 13 12 12 11 12 17 25 22 18 18 17 12 12 12 10 14 20 14 9 9 8 9 9 9 9 11 14 6 10 9 7 19 17 14 13 7 8 9 7 10 12 7 5 8 9 9 7 8 9 8 7 6 5 6 9 12 13 12 13 13 12 13 13 14 14 13 13 13 14 14 11
28 27 27 26 26 26 26 25 26 26 26 28 27 23 20 18 17 15 16 17 17 23 21 17 18 15 13 14 13 12 14 13 16 19 14 13 13 10 12 13 14 13 14 17 9 9 9 8 16 20 17 16 9 8 9 9 11 9 5 8 11 8 7 7 6 7 6 5 4 5 5 7 12 13 12 14 13 13 15 15 14 14 13 13 13 15 16 13
25 25 24 24 25 25 24 24 25 25 26 27 24 21 21 20 18 17 18 20 20 26 25 18 13 13 12 14 13 13 13 12 15 18 12 10 13 14 13 11 14 15 14 16 14 12 10 11 13 14 9 13 14 9 12 13 11 11 8 6 7 5 8 7 4 6 7 5 3 5 4 6 13 15 13 13 13 14 16 16 16 16 15 13 13 15 16 15
22 22 22 22 22 23 23 23 24 25 24 23 21 20 21 22 21 20 21 23 21 22 27 22 16 11 11 14 14 15 16 11 12 14 10 6 8 12 11 8 12 16 14 17 15 9 7 11 11 4 4 10 20 11 10 12 11 13 12 8 6 5 7 7 4 6 6 4 5 6 7 10 16 17 15 14 14 15 14 15 16 16 16 15 14 14 15 15
20 20 20 20 21 21 22 22 23 24 23 21 20 20 21 22 23 23 24 27 22 17 23 24 21 18 14 11 12 16 19 16 13 12 9 9 11 9 8 11 13 15 18 18 17 16 10 15 14 10 11 11 15 10 9 11 13 14 11 10 7 6 8 9 7 7 6 5 9 9 8 14 16 15 17 17 15 14 14 14 15 16 17 17 16 16 15 17
19 19 19 20 20 20 21 22 22 23 22 21 21 20 22 22 23 24 25 27 23 19 23 25 23 26 22 15 13 19 22 20 18 16 12 13 13 9 11 13 12 16 18 14 16 21 16 11 13 13 11 8 6 9 7 6 12 15 9 9 11 9 11 11 9 10 9 8 13 15 16 18 16 11 15 18 17 17 17 16 17 18 20 19 17 17 18 20
20 19 19 19 20 19 21 21 21 22 21 21 22 21 23 24 24 25 26 25 22 19 24 25 24 26 27 24 19 20 24 19 18 20 17 15 15 11 12 17 14 14 12 10 13 18 17 12 12 14 14 9 7 11 8 7 15 18 12 10 11 9 10 10 10 12 10 7 9 12 16 19 18 15 16 18 19 20 20 20 18 16 17 19 18 19 19 21
20 19 17 17 19 19 20 21 21 23 23 22 23 23 24 25 24 24 24 23 22 22 24 25 23 24 29 29 23 21 25 21 17 19 17 15 15 12 9 16 14 13 10 14 13 13 16 17 14 14 16 13 12 14 12 13 18 17 13 12 10 7 8 9 10 13 12 8 7 9 13 18 19 18 19 19 20 21 22 22 21 18 18 18 19 21 23 23
20 20 17 17 19 19 20 21 22 23 24 24 24 24 26 27 24 22 23 24 25 25 25 25 24 25 29 31 29 26 27 25 21 18 19 17 17 15 12 18 16 15 15 17 13 12 17 18 16 15 15 15 15 16 14 12 12 10 9 12 12 13 14 12 10 14 13 10 11 11 13 19 21 19 19 19 19 20 22 23 23 23 22 20 19 21 22 24
22 21 19 18 19 19 19 20 21 23 23 24 25 24 26 28 25 24 25 26 26 26 26 25 25 26 28 30 30 30 30 30 25 19 21 23 20 18 19 22 19 15 17 18 16 14 15 17 20 18 17 18 17 16 15 10 10 11 9 9 13 14 14 13 11 12 11 11 14 14 14 19 22 18 17 18 18 18 20 22 23 22 20 19 19 18 18 21
25 23 21 20 18 18 19 19 19 21 23 23 25 25 25 27 26 27 27 26 28 28 26 27 27 28 29 29 31 31 31 36 35 24 20 21 20 20 20 21 22 20 21 24 22 17 13 14 21 19 18 19 17 17 18 14 14 14 8 6 10 10 10 12 11 9 11 14 15 14 15 18 19 18 16 17 19 20 20 21 21 20 19 18 18 17 16 18
27 25 23 22 20 18 19 20 20 20 22 23 24 24 24 24 25 27 28 27 28 29 28 29 30 29 28 29 30 31 31 36 39 33 26 23 21 19 18 23 28 26 20 24 27 25 20 16 18 19 19 19 18 17 16 14 14 11 5 6 8 9 10 13 12 11 14 15 14 15 17 16 17 19 19 17 18 20 20 20 18 18 19 20 18 16 16 16
27 26 24 24 23 20 19 22 22 19 21 23 24 23 23 23 22 25 29 29 29 30 30 29 29 27 28 29 31 32 33 35 37 37 35 29 23 20 20 26 31 29 23 23 28 29 24 18 14 16 18 18 17 16 13 12 11 8 6 8 10 11 14 14 14 16 17 15 14 18 20 17 17 20 21 19 19 18 18 18 19 18 19 20 19 17 17 16
28 28 25 25 25 23 22 24 23 20 21 23 23 22 22 23 23 23 26 27 27 28 29 28 28 27 27 29 31 31 33 34 35 35 35 32 27 26 24 23 24 26 24 24 27 30 29 24 17 14 16 19 17 15 14 14 11 9 11 11 10 12 15 17 16 16 17 17 19 22 22 20 19 21 22 22 20 18 19 20 20 19 19 19 19 19 18 17
30 30 28 26 26 26 24 24 24 23 22 23 23 23 23 23 23 24 25 24 23 23 24 25 26 27 27 27 29 30 32 34 34 30 29 31 32 30 26 21 18 20 22 22 25 28 29 27 22 18 18 21 20 17 17 15 12 14 17 16 13 13 14 16 14 13 16 20 21 22 22 23 23 23 23 22 20 19 21 22 21 19 19 20 20 19 19 17
33 33 32 29 28 27 26 25 26 25 24 23 23 24 25 24 23 25 26 25 23 21 21 21 21 23 26 25 23 23 27 34 36 31 29 34 38 36 30 26 22 18 18 20 22 25 26 25 23 20 20 22 20 18 18 16 14 17 19 18 17 16 16 17 17 15 18 22 21 20 23 25 25 25 24 22 21 20 20 21 21 18 18 19 19 19 19 18
35 34 34 32 30 28 28 27 28 27 25 25 25 26 26 26 26 26 25 25 27 26 24 23 21 21 23 24 24 23 25 32 37 38 38 40 44 43 38 34 31 25 19 20 20 21 23 23 22 21 21 21 18 15 16 17 17 19 19 18 20 21 20 21 21 21 23 25 23 22 26 28 26 23 24 23 23 22 21 21 20 18 17 18 18 18 18 18
Wind_Direction
69 66 65 64 63 62 61 60 59 58 56 55 52 49 47 44 40 33 21 5 351 327 308 288 283 276 274 274 271 269 265 268 265 262 257 254 255 252 252 251 256 260 267 276 278 296 299 295 291 301 321 198 341 4 33 51 53 16 270 234 207 172 112 99 146 139 110 96 81 68 60 52 52 52 56 67 62 48 38 38 33 31 31 23 20 66 85 58
67 64 61 59 59 58 58 57 55 55 53 52 51 48 45 42 39 35 27 12 353 340 332 315 300 283 276 272 272 276 274 275 268 263 258 255 255 251 251 247 248 251 254 262 266 277 280 280 277 294 302 290 345 6 17 21 36 10 347 280 130 107 103 127 125 140 120 102 95 82 72 57 58 59 61 72 67 54 45 43 29 17 15 7 360 45 90 91
66 62 58 56 54 53 53 52 51 50 49 48 46 45 43 39 36 32 27 20 7 353 338 326 319 299 285 275 270 273 275 280 272 267 260 255 255 250 250 246 244 245 247 250 254 262 266 267 264 292 292 293 344 2 353 14 41 8 357 105 122 114 96 103 107 149 156 111 126 110 91 77 59 65 73 72 58 56 54 43 19 3 2 1 358 21 76 92
64 59 56 52 50 48 47 47 46 45 44 43 41 40 39 36 34 30 25 19 11 3 350 332 322 312 299 284 275 271 271 276 273 271 266 259 257 249 246 247 243 242 243 242 243 248 250 248 251 280 282 281 324 345 342 10 47 16 358 344 119 156 128 117 135 168 169 125 140 118 91 94 74 77 80 62 38 42 48 39 12 355 343 347 354 356 41 75
61 56 52 49 46 43 41 41 40 39 38 38 37 35 34 32 31 28 24 19 11 3 352 339 322 315 307 294 285 277 274 274 270 269 269 266 260 253 243 242 242 241 241 238 238 238 242 241 239 250 269 284 304 325 341 354 22 19 342 296 111 163 156 152 183 197 180 125 125 98 75 80 79 89 76 74 58 41 36 23 2 352 334 340 352 343 16 54
56 52 49 46 42 39 36 34 33 33 33 33 33 31 29 27 26 25 22 19 14 6 356 342 328 316 309 301 294 286 279 275 274 271 269 270 266 259 243 234 236 239 239 237 236 233 236 234 232 238 243 273 287 288 314 326 341 9 336 283 110 154 201 168 160 224 179 91 90 80 44 11 63 75 58 78 77 59 35 18 360 347 330 333 344 349 14 42
45 45 44 43 39 35 31 29 28 28 28 29 29 27 25 24 22 20 18 16 13 8 1 350 336 318 309 305 300 299 290 279 275 268 263 266 267 262 247 231 227 231 234 235 234 231 231 229 227 229 224 246 266 270 289 304 325 360 358 329 356 202 227 196 159 295 38 29 35 41 354 325 298 19 31 75 71 64 38 17 357 336 325 332 342 4 14 22
41 41 40 38 33 29 25 23 22 21 23 24 25 24 22 21 18 16 13 12 10 7 3 356 346 329 314 308 307 309 296 283 279 266 259 260 259 260 253 234 225 225 226 227 230 227 224 228 228 226 225 241 258 263 281 288 300 340 11 12 1 4 318 26 47 32 27 351 343 16 351 327 277 323 352 33 57 65 33 12 358 333 319 332 349 16 19 23
41 40 38 33 25 20 16 15 15 15 17 18 20 20 19 19 16 13 10 8 7 5 2 357 351 340 325 314 311 311 298 295 296 275 262 258 255 255 254 241 228 223 220 219 221 220 219 225 230 227 227 239 250 255 272 272 287 336 316 291 318 350 11 24 39 32 16 1 6 7 358 6 333 323 321 304 13 74 42 15 4 333 313 331 358 21 19 28
38 35 26 19 15 9 6 6 7 8 9 11 14 15 16 16 13 11 8 7 5 3 1 357 352 346 337 325 313 308 301 305 305 283 268 258 251 248 249 246 234 226 218 214 215 214 215 221 225 225 225 235 241 249 275 276 299 323 276 272 289 308 357 6 9 11 2 3 12 0 358 13 338 318 309 289 304 313 58 13 3 337 311 330 346 360 5 20
28 21 6 360 358 355 355 355 357 358 1 3 5 9 11 11 11 10 8 5 2 0 359 356 353 348 343 335 321 313 308 308 307 293 276 260 251 244 241 242 239 236 225 216 214 210 212 217 221 225 225 235 240 243 272 284 307 310 287 284 285 292 338 342 325 348 343 336 355 354 358 6 335 310 294 282 275 246 143 11 6 349 316 319 326 338 327 19
7 357 345 343 341 342 342 343 348 348 351 353 356 1 3 6 7 6 6 3 1 359 357 355 354 350 345 341 331 321 314 308 308 303 287 267 256 245 235 235 239 243 237 226 219 213 212 213 216 223 223 232 241 249 275 285 298 304 297 296 289 287 317 330 312 323 319 314 335 347 355 355 345 328 280 267 262 238 203 108 29 352 323 312 315 331 312 353
334 332 328 328 328 330 329 332 336 337 340 343 346 351 355 359 1 2 2 1 0 358 356 354 352 350 346 342 336 328 319 308 304 304 297 279 264 251 235 229 231 238 241 237 231 225 223 219 217 220 220 227 235 248 273 283 294 303 294 290 290 289 300 316 302 306 308 309 321 334 347 342 345 343 290 257 263 253 225 186 113 355 327 307 309 333 325 343
312 313 313 315 316 318 320 322 325 327 330 333 336 341 345 351 354 357 357 357 359 357 356 353 349 348 344 341 338 332 325 313 303 300 297 286 272 261 244 230 226 232 239 241 237 233 232 229 224 224 223 223 224 237 265 280 284 287 284 284 288 289 292 289 291 303 304 308 314 315 329 332 341 347 319 259 261 258 235 236 193 189 307 286 297 319 320 312
301 302 302 305 307 308 310 313 316 318 321 323 327 331 335 340 345 350 351 353 354 355 354 351 347 346 344 342 336 330 326 317 306 297 292 288 280 271 257 237 227 230 237 241 241 236 231 228 227 229 228 218 212 224 252 267 274 280 277 278 279 286 301 296 288 300 304 308 311 307 322 324 323 342 338 276 261 258 243 258 223 196 279 248 288 302 304 295
296 296 297 298 299 301 302 305 308 311 313 316 318 322 326 330 335 341 344 346 348 351 351 349 347 345 346 344 335 332 328 318 308 298 294 290 283 275 265 247 232 231 237 241 242 241 234 225 220 220 218 210 204 214 237 247 265 278 271 273 276 285 301 296 290 300 306 305 306 313 331 323 307 333 339 302 261 267 272 269 237 222 251 240 283 286 289 297
292 291 292 292 293 296 297 299 302 305 307 309 312 316 319 321 326 332 336 339 342 345 346 347 346 344 345 342 337 336 328 321 312 299 295 291 286 280 271 260 242 235 238 241 243 244 238 226 219 214 206 201 205 216 240 252 269 280 277 285 287 290 290 288 303 307 304 304 303 306 320 322 306 321 333 310 262 274 277 265 245 231 242 253 271 260 267 286
290 290 289 288 289 291 293 296 298 300 303 305 308 310 313 315 319 324 328 332 335 339 341 343 343 343 344 342 342 340 331 326 317 305 297 288 287 283 277 270 253 243 241 242 244 245 243 233 221 214 208 203 219 269 305 290 286 287 285 286 285 16 309 286 314 317 311 314 305 300 308 324 315 313 330 314 284 284 276 261 252 228 233 260 262 249 252 274
289 289 289 289 288 288 289 291 294 297 299 301 304 306 309 310 313 317 321 325 329 332 335 337 338 340 342 342 344 343 337 331 321 314 302 290 289 285 282 274 259 251 246 244 244 244 246 242 224 214 203 138 21 330 326 305 293 295 286 274 260 133 288 282 321 318 312 314 306 304 308 317 308 304 319 308 298 290 268 257 255 227 222 252 258 248 240 250
285 287 288 289 289 289 288 288 290 293 295 298 301 303 304 306 308 311 315 319 323 325 329 332 333 334 337 341 342 343 343 338 328 319 310 299 291 287 285 278 268 258 250 247 248 246 246 243 230 212 168 92 29 288 294 282 267 265 254 257 270 288 277 294 323 306 300 309 305 303 296 292 296 299 307 296 290 288 265 252 253 232 219 240 251 241 229 231
282 283 285 286 287 288 288 288 288 290 292 294 297 299 300 302 304 306 310 314 317 319 322 325 327 329 332 336 337 339 343 342 335 326 318 306 295 289 284 276 270 261 255 251 249 251 249 242 240 223 167 126 206 249 244 247 253 255 249 257 301 315 287 296 302 287 288 304 301 297 287 283 286 285 296 292 282 280 269 254 248 230 219 228 234 234 229 225
280 280 282 283 284 285 286 287 287 288 289 291 293 295 296 298 299 302 305 308 311 314 316 319 323 324 327 329 329 332 337 339 335 328 320 310 301 292 282 276 271 264 262 258 253 258 256 242 241 224 192 175 217 233 227 240 259 270 269 282 4 306 300 309 300 281 277 290 292 294 288 278 275 278 286 285 272 260 252 244 235 225 223 223 220 229 230 221
279 279 280 281 282 284 284 285 286 286 287 288 291 291 293 295 296 299 301 303 306 309 311 314 317 318 320 321 322 324 329 334 334 326 318 309 302 292 282 275 270 267 260 251 246 250 244 33 291 245 223 272 262 245 229 236 257 270 266 261 228 246 279 300 288 270 263 280 286 289 286 275 266 276 281 277 263 239 229 232 225 217 219 218 214 222 227 222
279 279 279 280 281 282 283 285 286 287 287 288 289 289 291 292 293 295 297 300 302 305 308 309 313 315 315 316 316 319 323 328 331 327 319 307 298 292 286 277 270 267 259 252 248 247 201 104 275 255 232 265 270 266 244 238 248 263 267 268 260 242 231 262 273 258 251 277 287 285 287 284 270 270 277 281 277 248 237 240 225 209 211 214 212 214 222 224
279 280 279 279 280 281 284 285 286 287 288 288 289 290 291 290 292 294 294 298 299 300 303 306 311 314 313 314 312 314 320 323 327 327 322 308 296 289 283 280 273 265 260 256 252 249 211 188 249 255 239 246 259 274 268 252 245 255 282 299 300 283 245 247 261 261 265 272 280 281 280 285 284 283 284 295 312 310 295 258 226 207 207 212 214 215 218 224
279 280 280 280 279 280 282 283 284 284 286 287 288 288 289 289 290 291 292 297 297 297 300 302 305 308 309 311 308 312 315 317 322 322 320 311 298 287 280 277 273 267 261 258 257 244 223 230 264 270 259 260 265 267 260 248 232 247 268 243 282 296 279 269 265 264 271 266 268 276 273 282 288 292 294 298 304 309 320 283 225 212 217 211 212 219 218 221
279 280 281 280 279 280 280 281 283 283 284 286 286 286 287 287 288 289 291 295 293 293 299 302 301 302 305 306 306 310 311 312 316 319 319 314 303 291 281 272 269 269 265 261 269 258 238 242 260 269 281 274 263 257 255 258 214 205 254 229 194 245 295 322 309 273 261 255 261 271 272 283 284 282 289 294 295 296 313 298 229 217 230 220 213 219 217 219
280 281 281 280 280 280 280 280 280 281 283 283 284 285 285 285 286 285 288 289 285 287 295 301 299 298 301 305 305 305 306 307 310 318 318 310 301 291 282 273 262 260 264 254 243 262 262 255 257 268 276 263 269 263 246 285 225 198 243 253 232 227 229 299 289 263 243 244 258 267 268 278 279 281 289 290 297 299 305 299 240 218 223 226 221 221 218 216
282 282 281 280 281 280 280 280 279 280 281 281 282 282 282 282 282 283 285 283 282 285 290 294 293 291 294 300 301 298 299 299 303 311 311 305 295 279 276 274 263 254 254 242 221 242 269 269 263 267 255 252 327 288 226 225 204 205 233 245 248 258 230 213 239 250 246 246 255 261 264 270 275 283 289 286 300 309 304 293 252 227 223 227 227 224 224 222
282 282 281 280 281 280 280 280 279 278 278 279 280 280 279 279 278 280 279 280 285 286 287 290 287 286 291 295 293 291 291 291 296 303 302 299 290 277 269 260 262 258 243 244 245 252 274 284 278 265 236 202 216 245 246 205 196 219 250 249 252 277 262 233 238 249 244 248 258 260 261 268 274 277 278 279 293 314 314 298 258 237 231 231 229 226 226 227
283 283 281 281 281 281 281 280 278 278 277 278 278 277 277 275 274 275 275 279 285 281 284 288 282 281 286 286 285 286 287 286 291 296 296 294 288 278 267 253 254 251 237 251 263 269 284 280 270 262 248 242 234 241 257 223 214 228 239 221 201 230 247 265 262 252 245 248 258 263 263 268 272 272 273 275 277 288 307 312 284 246 232 228 225 224 224 224
285 284 282 281 282 282 282 280 279 278 278 278 276 276 275 273 274 275 273 276 275 277 290 293 283 278 275 278 284 285 284 285 287 288 290 293 288 279 267 251 237 225 234 297 295 316 325 303 290 296 262 255 252 237 246 236 222 217 214 224 229 223 235 262 253 253 260 256 259 268 273 271 267 266 270 274 270 274 289 304 299 266 241 226 222 225 226 226
285 283 281 280 281 282 282 281 280 279 278 276 275 275 273 273 280 281 272 266 264 270 283 284 283 285 276 272 279 281 281 281 283 286 285 288 290 281 266 247 228 202 201 228 239 326 337 325 317 318 288 250 226 188 200 241 234 207 208 231 241 242 247 257 269 277 272 270 273 276 276 274 268 263 269 277 271 271 277 284 284 272 261 240 228 232 231 229
284 282 279 278 278 279 280 280 279 278 275 274 274 273 273 278 286 284 269 255 254 262 262 263 278 287 283 276 274 280 285 276 280 289 285 286 290 280 261 243 220 180 169 163 173 270 305 307 309 314 296 257 221 177 191 211 243 250 240 238 243 263 261 255 282 284 270 275 280 283 281 270 270 265 260 265 268 266 267 270 269 260 265 258 243 242 236 232
283 281 279 277 276 275 276 276 275 274 273 272 271 270 275 281 281 274 266 249 233 271 283 281 273 273 279 283 271 273 281 274 279 286 282 281 284 282 280 249 220 204 180 157 192 236 229 274 292 288 232 249 228 202 214 201 215 244 242 244 257 270 261 246 266 274 269 274 279 285 284 270 269 269 269 271 272 270 266 266 264 257 262 265 258 253 245 238
282 281 278 276 275 273 273 273 272 271 269 269 269 270 274 273 269 258 244 230 190 198 259 273 265 255 265 278 271 257 258 236 251 271 275 276 275 272 270 247 241 240 179 153 191 238 194 232 270 251 240 266 244 213 236 196 200 228 228 232 246 259 262 251 264 275 269 276 283 271 268 276 276 277 284 283 274 269 267 265 265 262 262 266 265 262 257 248
281 278 276 275 274 273 272 272 270 269 267 266 266 268 268 263 260 249 235 234 209 194 210 240 261 259 237 249 260 248 243 224 233 257 265 271 277 264 241 229 240 241 181 159 179 214 195 213 255 258 258 266 245 207 231 214 196 199 199 231 238 250 277 267 266 285 282 282 284 266 259 269 274 276 274 269 266 266 262 260 261 259 256 259 259 258 255 249
278 276 274 273 273 273 273 272 271 270 266 266 267 266 264 257 252 244 239 249 236 220 224 223 240 261 229 223 245 249 243 225 235 256 256 254 269 267 253 229 234 235 191 177 186 196 212 214 242 276 278 259 258 221 214 229 208 187 201 232 218 229 270 267 282 306 287 269 256 269 272 243 251 262 265 267 274 273 264 261 262 259 258 259 256 253 251 248
276 275 273 272 273 273 273 272 271 271 270 270 269 262 259 254 249 240 236 251 249 231 236 230 215 232 229 213 215 231 247 232 217 240 242 225 241 261 268 226 224 241 213 187 175 172 245 245 232 241 127 238 266 252 204 231 230 211 227 244 212 214 247 238 252 279 273 298 312 300 298 268 252 252 260 270 277 277 272 266 263 261 257 254 249 250 251 249
275 274 274 273 274 273 273 272 270 271 271 269 266 259 256 252 248 245 240 251 257 236 236 237 214 207 218 219 203 212 238 248 235 228 225 227 219 214 228 195 192 238 236 203 175 163 203 247 232 189 166 213 257 256 198 208 234 231 239 260 251 240 251 243 248 259 257 295 293 277 267 264 260 256 262 267 267 268 270 262 259 257 252 250 247 247 251 254
273 274 275 274 275 274 275 274 271 271 269 267 265 260 257 252 247 247 244 249 255 239 236 240 221 208 209 212 215 213 217 229 241 236 220 232 235 214 232 231 206 224 235 217 193 177 177 235 247 226 220 212 235 254 205 186 261 255 227 250 257 241 249 253 253 257 246 232 245 246 240 246 258 269 271 272 269 265 266 267 267 260 250 250 254 255 256 260
273 273 274 275 276 276 276 276 273 272 269 265 263 258 255 254 249 248 249 251 252 240 238 240 232 227 222 212 207 203 200 212 240 243 222 219 240 239 246 265 252 220 235 259 234 202 184 205 239 240 237 219 211 234 194 177 252 245 209 230 256 256 264 262 258 263 252 231 250 261 253 252 263 275 276 278 276 269 267 269 271 264 255 253 256 261 263 265
275 276 277 278 278 276 276 276 274 272 269 263 261 258 256 255 252 253 255 254 250 240 238 239 235 233 231 227 220 201 196 204 220 235 228 215 235 242 235 259 244 182 207 256 247 223 206 202 213 228 235 231 217 218 209 211 229 219 205 232 238 232 263 274 280 277 262 253 273 274 267 269 269 269 270 271 272 273 272 268 265 269 275 269 262 262 264 267
278 280 282 281 280 279 277 275 272 270 269 265 263 259 258 259 256 254 252 250 248 244 242 242 236 230 229 233 235 222 213 209 198 211 227 218 227 237 229 243 231 175 191 219 210 222 230 223 223 223 230 234 221 219 230 242 242 214 209 250 247 219 222 230 249 264 260 257 261 254 258 270 269 267 271 270 269 275 277 273 272 277 282 278 270 266 265 266
280 281 282 281 281 280 276 273 272 272 270 268 266 262 260 262 261 254 249 248 249 248 244 243 239 234 233 234 234 229 223 216 203 205 217 209 212 225 228 238 233 196 187 194 196 214 226 238 243 230 226 234 229 230 231 228 247 238 214 243 256 237 228 230 241 259 264 260 261 256 252 264 269 268 268 271 273 275 275 276 280 284 282 276 274 275 272 268
279 280 281 279 277 276 275 274 271 271 271 271 270 267 264 264 264 259 254 250 250 249 246 244 242 238 235 236 236 233 228 222 217 213 207 202 207 220 230 241 238 220 194 185 195 204 200 232 249 239 231 231 228 238 240 224 231 243 236 242 255 254 247 243 245 256 256 253 260 263 256 264 274 270 264 271 279 280 278 277 282 288 285 277 275 278 277 271
276 277 278 278 275 272 272 272 270 270 271 271 271 271 269 266 266 265 261 254 250 250 246 243 243 242 240 239 238 237 233 230 228 223 213 206 206 214 233 243 241 239 220 193 195 198 191 206 236 244 244 237 228 236 247 243 236 240 271 295 286 282 263 251 245 242 247 251 258 263 260 260 269 273 273 278 282 284 281 278 281 287 285 279 278 278 277 274
273 274 276 278 277 274 268 269 272 272 269 270 270 271 270 267 263 262 262 260 254 251 248 245 244 244 242 241 239 237 235 235 234 230 222 215 203 202 228 242 244 249 242 214 206 208 205 205 218 238 252 251 240 235 240 247 246 246 249 248 253 259 261 265 256 241 243 251 253 258 261 259 261 270 276 276 278 280 279 278 279 280 279 280 282 283 279 276
270 271 272 274 275 274 269 269 273 271 266 269 271 269 268 265 260 256 258 262 261 255 251 247 243 241 240 239 240 239 236 236 237 233 228 224 210 199 211 232 249 259 251 227 217 220 223 222 216 219 243 253 246 236 236 239 243 249 245 242 248 256 265 272 262 246 247 252 252 255 260 263 264 267 271 273 275 276 276 279 281 281 280 280 281 281 278 275
269 269 269 269 270 270 270 269 270 269 266 267 269 267 264 261 258 254 254 257 261 260 255 249 242 239 237 237 241 242 239 237 236 230 227 226 216 205 206 217 237 261 264 245 229 227 230 229 223 218 229 241 243 240 237 234 236 244 240 235 236 241 257 271 266 255 254 253 254 259 263 266 265 264 268 272 276 279 280 281 282 281 279 279 277 277 276 273
267 267 266 266 266 267 267 266 265 266 266 264 263 261 260 257 253 252 253 256 257 252 250 249 242 235 232 230 236 242 239 236 232 225 221 220 214 208 208 209 213 232 259 261 241 230 232 231 228 231 234 236 238 240 235 226 228 239 240 237 235 230 237 251 252 256 263 263 263 267 268 266 263 265 269 270 273 278 278 278 281 279 276 276 275 274 274 273
265 265 265 264 264 264 263 262 262 262 261 260 259 257 256 254 251 249 246 249 254 251 247 247 245 243 241 233 230 234 238 235 228 222 222 221 216 211 208 204 201 199 215 246 247 231 230 233 230 233 239 238 236 238 239 236 234 236 238 244 247 243 244 253 260 264 268 269 271 272 270 269 268 270 273 271 271 274 275 277 279 278 276 276 275 273 271 270
Height
5900 5899 5899 5898 5897 5897 5896 5895 5895 5894 5893 5892 5892 5891 5890 5890 5889 5889 5888 5888 5888 5887 5887 5887 5887 5886 5886 5886 5886 5886 5886 5886 5886 5886 5886 5886 5887 5887 5887 5888 5888 5888 5888 5888 5888 5887 5888 5888 5887 5886 5885 5885 5884 5884 5885 5884 5884 5885 5885 5885 5885 5885 5885 5884 5884 5884 5884 5884 5884 5884 5884 5884 5883 5883 5883 5883 5883 5883 5882 5882 5882 5882 5882 5882 5882 5882 5882 5882
5901 5900 5900 5899 5899 5898 5897 5896 5896 5895 5894 5893 5893 5892 5891 5890 5890 5889 5888 5888 5888 5887 5887 5887 5886 5886 5886 5886 5886 5886 5885 5885 5885 5885 5886 5886 5886 5886 5887 5887 5887 5887 5888 5887 5887 5887 5888 5888 5887 5887 5886 5885 5885 5884 5884 5884 5884 5885 5885 5885 5885 5885 5885 5884 5884 5884 5884 5883 5884 5884 5884 5884 5884 5884 5884 5884 5883 5883 5883 5882 5883 5883 5883 5882 5882 5882 5882 5882
5901 5901 5901 5900 5899 5899 5898 5897 5896 5896 5895 5894 5893 5893 5892 5891 5890 5889 5889 5888 5888 5887 5887 5887 5886 5886 5885 5885 5885 5885 5885 5885 5885 5885 5885 5885 5885 5886 5886 5886 5887 5887 5887 5887 5887 5887 5888 5888 5887 5887 5886 5886 5886 5885 5884 5885 5885 5886 5885 5884 5885 5885 5884 5883 5883 5885 5885 5882 5883 5883 5883 5884 5884 5884 5884 5884 5884 5883 5883 5883 5883 5883 5883 5883 5883 5883 5882 5883
5902 5902 5901 5901 5900 5899 5899 5898 5897 5896 5896 5895 5894 5893 5892 5892 5891 5890 5889 5888 5888 5887 5887 5886 5886 5885 5885 5884 5884 5884 5885 5885 5885 5884 5884 5884 5885 5885 5885 5885 5886 5886 5886 5886 5887 5887 5887 5888 5887 5887 5887 5885 5885 5886 5885 5885 5886 5887 5886 5884 5886 5886 5885 5884 5884 5885 5885 5883 5883 5883 5883 5884 5884 5884 5884 5884 5884 5884 5884 5883 5883 5883 5883 5883 5883 5883 5883 5883
5902 5902 5901 5901 5901 5900 5899 5899 5898 5897 5896 5895 5895 5894 5893 5892 5891 5890 5889 5889 5888 5887 5887 5886 5886 5885 5885 5884 5884 5884 5884 5884 5884 5884 5884 5884 5884 5885 5885 5885 5885 5885 5885 5886 5886 5887 5887 5888 5888 5887 5887 5884 5884 5887 5886 5885 5886 5887 5887 5886 5887 5887 5886 5885 5884 5885 5884 5884 5885 5884 5884 5884 5884 5884 5885 5884 5884 5884 5884 5884 5884 5884 5884 5883 5883 5884 5884 5884
5903 5902 5902 5901 5901 5900 5900 5899 5898 5898 5897 5896 5895 5894 5893 5893 5892 5891 5890 5889 5888 5887 5886 5886 5885 5885 5884 5884 5883 5883 5883 5883 5883 5883 5883 5883 5884 5884 5884 5885 5885 5885 5885 5885 5886 5886 5886 5887 5888 5888 5888 5885 5885 5887 5886 5885 5886 5888 5889 5887 5886 5886 5886 5885 5884 5884 5885 5886 5886 5886 5885 5885 5885 5885 5885 5885 5885 5884 5885 5884 5884 5884 5884 5884 5884 5884 5884 5884
5903 5902 5902 5902 5901 5901 5900 5899 5899 5898 5897 5896 5896 5895 5894 5893 5892 5891 5890 5889 5888 5887 5886 5886 5885 5884 5884 5883 5883 5883 5882 5882 5882 5882 5882 5883 5883 5883 5884 5884 5884 5884 5884 5885 5885 5886 5886 5887 5888 5888 5888 5886 5886 5886 5885 5885 5887 5889 5890 5887 5886 5887 5886 5885 5885 5885 5887 5887 5886 5887 5886 5886 5886 5885 5886 5885 5884 5885 5885 5885 5885 5884 5884 5884 5884 5884 5885 5884
5903 5902 5902 5902 5901 5901 5900 5900 5899 5898 5898 5897 5896 5895 5894 5893 5892 5891 5890 5889 5888 5887 5886 5885 5885 5884 5883 5883 5882 5882 5882 5881 5881 5881 5881 5882 5882 5883 5883 5883 5884 5884 5884 5884 5884 5885 5885 5886 5887 5887 5888 5886 5886 5887 5886 5886 5887 5890 5891 5889 5889 5889 5887 5886 5886 5887 5887 5886 5886 5887 5887 5886 5886 5886 5886 5886 5885 5885 5885 5885 5885 5885 5885 5885 5885 5884 5885 5885
5903 5902 5902 5902 5901 5901 5900 5900 5899 5898 5898 5897 5896 5895 5894 5893 5892 5891 5890 5889 5888 5887 5886 5885 5884 5883 5883 5882 5882 5882 5881 5881 5881 5881 5881 5881 5882 5882 5882 5883 5883 5883 5883 5883 5883 5884 5885 5885 5886 5887 5887 5886 5886 5888 5888 5887 5888 5890 5890 5889 5889 5889 5887 5887 5888 5888 5887 5886 5887 5887 5886 5886 5886 5886 5886 5886 5885 5885 5885 5885 5885 5885 5885 5885 5885 5885 5885 5885
5903 5902 5902 5902 5901 5901 5900 5899 5899 5898 5898 5897 5896 5895 5894 5893 5892 5891 5890 5889 5888 5887 5886 5885 5884 5883 5882 5882 5881 5881 5880 5880 5880 5880 5880 5880 5881 5881 5882 5882 5882 5882 5882 5883 5883 5883 5884 5884 5885 5886 5887 5886 5886 5888 5887 5886 5889 5890 5888 5887 5887 5887 5888 5888 5889 5889 5887 5887 5888 5887 5887 5887 5887 5887 5887 5887 5886 5886 5886 5886 5885 5886 5886 5885 5885 5885 5885 5885
5903 5902 5902 5901 5901 5900 5900 5899 5899 5898 5897 5897 5896 5895 5894 5893 5892 5891 5890 5889 5888 5887 5886 5885 5884 5883 5882 5881 5880 5880 5880 5880 5879 5879 5879 5879 5880 5880 5881 5881 5881 5881 5882 5882 5882 5883 5883 5883 5884 5885 5886 5886 5886 5887 5886 5886 5889 5889 5887 5887 5887 5888 5890 5890 5888 5889 5888 5888 5888 5887 5887 5887 5888 5887 5887 5887 5887 5886 5886 5886 5886 5886 5886 5886 5885 5886 5886 5885
5903 5902 5902 5901 5901 5900 5900 5899 5899 5898 5897 5897 5896 5895 5894 5893 5892 5891 5890 5889 5888 5887 5886 5885 5884 5883 5882 5881 5880 5879 5879 5879 5879 5878 5878 5878 5879 5879 5880 5880 5881 5881 5881 5881 5881 5882 5882 5882 5883 5884 5885 5885 5885 5886 5886 5886 5889 5888 5887 5887 5888 5888 5891 5890 5887 5888 5889 5888 5888 5887 5887 5887 5887 5886 5886 5886 5886 5886 5886 5886 5886 5886 5886 5886 5886 5886 5886 5886
5902 5902 5902 5901 5901 5900 5899 5899 5898 5898 5897 5896 5896 5895 5894 5893 5892 5891 5890 5889 5888 5887 5886 5885 5884 5883 5882 5881 5880 5879 5879 5878 5878 5878 5878 5878 5878 5878 5879 5879 5880 5880 5880 5880 5881 5881 5881 5882 5883 5883 5884 5885 5885 5886 5886 5886 5887 5888 5887 5887 5887 5887 5889 5890 5887 5887 5888 5888 5888 5887 5888 5888 5887 5886 5885 5886 5886 5886 5886 5886 5886 5886 5886 5886 5886 5886 5886 5885
5902 5902 5901 5901 5900 5900 5899 5899 5898 5897 5897 5896 5895 5894 5894 5893 5892 5891 5890 5889 5888 5887 5886 5884 5883 5882 5881 5880 5879 5879 5878 5878 5877 5877 5877 5877 5877 5877 5878 5878 5879 5879 5879 5879 5880 5881 5881 5882 5883 5883 5883 5884 5885 5885 5886 5886 5886 5886 5887 5886 5886 5886 5887 5888 5887 5886 5888 5888 5888 5887 5888 5888 5887 5887 5885 5886 5887 5886 5887 5887 5886 5886 5886 5886 5886 5886 5886 5886
5902 5901 5901 5900 5899 5899 5898 5898 5897 5897 5896 5895 5895 5894 5893 5892 5891 5891 5890 5889 5888 5886 5885 5884 5883 5882 5881 5880 5879 5878 5878 5877 5877 5876 5876 5876 5876 5876 5877 5877 5878 5878 5878 5878 5879 5879 5880 5881 5882 5883 5883 5884 5885 5885 5885 5886 5885 5885 5886 5886 5885 5885 5885 5886 5886 5886 5887 5888 5887 5887 5888 5888 5887 5887 5886 5886 5886 5886 5887 5887 5886 5886 5886 5886 5886 5886 5886 5886
5901 5900 5900 5899 5899 5898 5898 5897 5897 5896 5895 5895 5894 5893 5893 5892 5891 5890 5889 5888 5887 5886 5885 5884 5883 5882 5881 5880 5879 5878 5877 5876 5876 5876 5875 5876 5875 5875 5876 5876 5876 5877 5877 5877 5878 5878 5879 5880 5881 5882 5883 5883 5884 5885 5885 5886 5885 5885 5885 5885 5885 5885 5885 5885 5885 5885 5887 5888 5887 5887 5887 5888 5888 5887 5886 5886 5887 5887 5887 5887 5886 5886 5886 5886 5887 5887 5887 5886
5900 5899 5899 5899 5898 5897 5897 5896 5896 5895 5894 5894 5893 5893 5892 5891 5890 5889 5889 5888 5887 5886 5885 5883 5882 5881 5880 5879 5878 5877 5876 5876 5875 5875 5875 5875 5875 5875 5875 5875 5875 5876 5876 5876 5877 5877 5878 5880 5881 5881 5882 5883 5884 5884 5885 5885 5885 5885 5884 5884 5885 5885 5884 5885 5885 5885 5885 5887 5887 5886 5887 5888 5887 5886 5886 5886 5886 5887 5887 5886 5886 5886 5886 5886 5887 5887 5887 5887
5899 5898 5898 5897 5897 5896 5896 5895 5895 5894 5894 5893 5892 5892 5891 5890 5889 5889 5888 5887 5886 5885 5884 5883 5882 5881 5880 5879 5878 5877 5876 5875 5874 5874 5874 5874 5874 5874 5874 5874 5874 5874 5875 5875 5876 5876 5877 5879 5880 5881 5882 5883 5884 5885 5886 5886 5886 5885 5885 5885 5885 5886 5885 5885 5885 5885 5884 5885 5886 5886 5886 5887 5886 5886 5886 5885 5886 5887 5887 5886 5886 5885 5886 5886 5887 5887 5887 5887
5897 5897 5896 5896 5895 5895 5895 5894 5893 5893 5892 5892 5891 5890 5890 5889 5888 5888 5887 5886 5885 5884 5884 5882 5881 5880 5879 5878 5877 5876 5875 5874 5874 5873 5873 5873 5873 5873 5873 5874 5874 5874 5874 5874 5875 5875 5876 5878 5879 5880 5881 5882 5885 5887 5887 5888 5887 5886 5885 5884 5884 5886 5886 5885 5885 5886 5885 5884 5885 5885 5886 5886 5886 5886 5885 5885 5886 5887 5887 5887 5886 5886 5886 5887 5887 5887 5887 5887
5896 5895 5895 5894 5894 5893 5893 5893 5892 5891 5891 5890 5890 5889 5889 5888 5887 5887 5886 5885 5884 5883 5883 5882 5881 5880 5879 5878 5877 5876 5875 5874 5873 5872 5872 5872 5872 5872 5872 5873 5873 5873 5873 5874 5874 5875 5875 5876 5877 5879 5880 5883 5888 5889 5888 5888 5886 5884 5885 5884 5884 5885 5886 5886 5885 5885 5885 5884 5884 5885 5885 5885 5885 5885 5885 5885 5885 5886 5886 5886 5886 5885 5886 5886 5887 5887 5887 5888
5894 5894 5893 5893 5892 5892 5891 5891 5890 5890 5890 5889 5888 5888 5887 5887 5886 5885 5885 5884 5883 5882 5882 5881 5880 5879 5878 5877 5876 5875 5874 5874 5873 5872 5871 5871 5871 5871 5872 5872 5872 5872 5873 5873 5874 5874 5874 5875 5876 5879 5879 5882 5886 5886 5885 5885 5882 5882 5884 5883 5884 5886 5886 5886 5885 5885 5885 5885 5883 5884 5885 5885 5885 5884 5884 5884 5884 5884 5884 5884 5885 5885 5885 5886 5886 5887 5887 5888
5893 5892 5891 5891 5890 5890 5889 5889 5888 5888 5888 5887 5887 5886 5885 5885 5884 5884 5883 5883 5882 5881 5880 5880 5879 5878 5877 5876 5875 5875 5874 5873 5872 5871 5871 5871 5870 5871 5871 5871 5871 5872 5872 5873 5873 5873 5874 5875 5876 5877 5878 5879 5881 5881 5881 5881 5880 5882 5883 5883 5885 5886 5886 5886 5885 5884 5885 5885 5883 5883 5883 5884 5884 5884 5883 5882 5882 5882 5882 5883 5884 5884 5884 5885 5886 5887 5887 5887
5891 5890 5890 5889 5888 5888 5887 5887 5886 5886 5886 5886 5885 5884 5884 5883 5883 5882 5882 5881 5881 5880 5879 5878 5878 5877 5876 5875 5874 5874 5873 5873 5872 5871 5870 5870 5870 5870 5870 5870 5871 5871 5871 5872 5872 5873 5874 5876 5877 5877 5878 5879 5878 5878 5879 5879 5880 5881 5882 5883 5885 5886 5886 5885 5883 5884 5885 5884 5883 5883 5882 5882 5883 5883 5882 5881 5880 5880 5880 5881 5882 5883 5883 5885 5886 5886 5887 5887
5888 5888 5888 5887 5886 5886 5885 5885 5884 5883 5883 5884 5883 5883 5882 5881 5881 5880 5880 5880 5879 5879 5878 5877 5877 5876 5875 5875 5874 5873 5873 5872 5871 5870 5870 5869 5869 5869 5869 5869 5870 5870 5870 5871 5872 5872 5873 5876 5877 5876 5877 5878 5877 5877 5877 5878 5880 5881 5881 5882 5883 5884 5886 5885 5882 5882 5883 5883 5882 5882 5881 5880 5881 5882 5881 5880 5880 5881 5881 5881 5881 5881 5882 5883 5885 5886 5886 5887
5886 5886 5885 5885 5884 5884 5883 5882 5882 5881 5881 5881 5881 5881 5880 5879 5879 5878 5878 5878 5877 5877 5876 5875 5875 5875 5874 5874 5873 5872 5872 5871 5870 5870 5869 5869 5868 5868 5868 5868 5869 5869 5870 5870 5871 5872 5872 5874 5875 5874 5875 5875 5875 5875 5876 5877 5878 5880 5881 5882 5883 5882 5884 5884 5882 5881 5881 5881 5881 5881 5880 5879 5879 5879 5879 5879 5880 5880 5880 5881 5882 5882 5881 5882 5884 5885 5886 5886
5884 5883 5883 5882 5882 5881 5881 5880 5879 5879 5879 5879 5879 5878 5878 5877 5877 5876 5876 5876 5874 5874 5875 5874 5874 5874 5873 5873 5872 5871 5871 5870 5870 5869 5868 5868 5867 5867 5867 5868 5868 5868 5869 5869 5870 5871 5872 5872 5872 5873 5873 5873 5874 5874 5874 5875 5877 5879 5881 5882 5883 5882 5883 5882 5881 5881 5880 5880 5880 5880 5880 5878 5878 5878 5878 5878 5879 5879 5879 5880 5881 5882 5882 5882 5883 5885 5885 5886
5881 5881 5880 5879 5879 5878 5878 5878 5877 5876 5876 5876 5876 5876 5875 5874 5874 5874 5873 5874 5872 5870 5872 5873 5872 5872 5871 5871 5871 5870 5869 5869 5869 5868 5867 5867 5867 5866 5867 5867 5867 5867 5868 5869 5869 5870 5870 5871 5871 5871 5872 5872 5872 5873 5873 5873 5876 5878 5879 5879 5880 5882 5883 5882 5881 5880 5878 5878 5879 5878 5879 5878 5877 5879 5879 5878 5879 5879 5879 5878 5879 5881 5882 5882 5883 5884 5885 5886
5878 5878 5876 5874 5874 5875 5874 5875 5874 5872 5873 5873 5872 5873 5872 5872 5872 5871 5871 5871 5869 5868 5870 5871 5870 5870 5870 5870 5870 5869 5869 5868 5867 5868 5867 5866 5866 5866 5866 5866 5866 5867 5867 5868 5869 5869 5869 5869 5870 5870 5871 5871 5871 5872 5872 5873 5875 5877 5877 5877 5877 5878 5879 5881 5880 5878 5876 5877 5877 5877 5878 5877 5876 5877 5878 5878 5878 5878 5878 5878 5878 5878 5880 5882 5882 5883 5884 5885
5873 5874 5872 5870 5870 5871 5870 5871 5871 5870 5869 5870 5869 5869 5869 5869 5869 5869 5869 5868 5867 5866 5868 5869 5869 5868 5868 5868 5868 5868 5868 5867 5866 5866 5866 5866 5865 5865 5865 5865 5865 5866 5866 5867 5867 5868 5868 5868 5868 5869 5869 5869 5871 5872 5872 5873 5875 5875 5874 5874 5874 5874 5875 5877 5878 5875 5875 5876 5876 5876 5876 5876 5875 5875 5877 5877 5877 5877 5876 5877 5878 5878 5879 5880 5881 5882 5883 5883
5869 5869 5868 5865 5865 5866 5866 5866 5867 5866 5866 5866 5866 5866 5866 5866 5865 5866 5866 5866 5866 5864 5864 5867 5867 5866 5866 5866 5866 5866 5866 5866 5866 5865 5865 5865 5865 5864 5864 5864 5864 5865 5865 5865 5866 5867 5867 5867 5868 5868 5868 5868 5870 5871 5870 5871 5873 5872 5872 5872 5873 5875 5874 5874 5874 5873 5874 5874 5874 5875 5875 5875 5874 5874 5875 5876 5876 5876 5875 5876 5877 5878 5879 5880 5881 5881 5882 5884
5865 5865 5864 5861 5860 5861 5862 5862 5862 5862 5862 5862 5862 5862 5862 5862 5862 5863 5862 5864 5865 5860 5860 5864 5863 5864 5865 5864 5865 5865 5865 5865 5865 5864 5864 5863 5863 5863 5863 5863 5863 5863 5864 5864 5865 5865 5866 5866 5867 5867 5867 5867 5868 5868 5869 5869 5870 5870 5870 5871 5873 5874 5872 5872 5873 5872 5873 5873 5873 5873 5874 5874 5873 5872 5873 5874 5874 5875 5876 5876 5877 5877 5878 5878 5880 5880 5881 5883
5861 5861 5860 5858 5857 5857 5858 5858 5858 5858 5858 5859 5859 5859 5859 5858 5859 5860 5861 5863 5863 5859 5859 5860 5859 5862 5863 5862 5862 5863 5863 5863 5863 5863 5863 5862 5862 5862 5862 5862 5862 5862 5863 5864 5865 5865 5865 5865 5866 5866 5866 5867 5867 5867 5868 5868 5868 5869 5869 5870 5871 5871 5872 5872 5872 5872 5872 5872 5872 5873 5873 5873 5871 5871 5872 5873 5874 5875 5876 5877 5877 5877 5877 5878 5878 5879 5881 5881
5857 5857 5856 5855 5854 5853 5854 5855 5854 5855 5855 5855 5855 5856 5856 5855 5856 5858 5859 5860 5860 5860 5861 5858 5855 5858 5861 5861 5861 5861 5862 5862 5860 5862 5861 5861 5861 5861 5861 5861 5861 5861 5863 5864 5866 5866 5865 5864 5865 5866 5865 5865 5866 5867 5868 5869 5868 5868 5869 5869 5870 5870 5871 5871 5872 5872 5872 5872 5872 5872 5873 5872 5870 5870 5871 5872 5872 5873 5875 5876 5876 5877 5877 5877 5878 5878 5879 5880
5853 5853 5852 5851 5850 5850 5850 5851 5851 5852 5852 5852 5852 5853 5853 5853 5855 5856 5857 5858 5859 5859 5859 5858 5857 5855 5856 5860 5860 5858 5860 5860 5858 5860 5860 5859 5860 5859 5859 5860 5860 5861 5862 5864 5867 5869 5869 5866 5863 5865 5865 5863 5864 5865 5867 5868 5868 5868 5869 5869 5869 5870 5870 5871 5871 5871 5872 5872 5872 5872 5872 5871 5869 5869 5870 5871 5871 5871 5873 5874 5876 5876 5876 5877 5877 5877 5878 5879
5849 5848 5848 5847 5847 5846 5846 5847 5848 5848 5848 5849 5849 5849 5850 5852 5853 5854 5854 5855 5858 5859 5858 5857 5857 5855 5854 5856 5858 5857 5859 5859 5858 5858 5858 5858 5858 5858 5858 5859 5859 5860 5861 5864 5867 5870 5873 5871 5865 5865 5865 5862 5864 5864 5864 5867 5868 5868 5868 5869 5869 5870 5869 5870 5871 5870 5871 5871 5872 5872 5871 5870 5867 5867 5869 5870 5870 5870 5871 5872 5873 5875 5875 5876 5876 5877 5877 5878
5844 5844 5843 5843 5843 5843 5843 5843 5844 5844 5844 5845 5845 5847 5848 5849 5850 5851 5851 5852 5855 5859 5859 5856 5854 5855 5855 5855 5857 5858 5858 5860 5858 5857 5857 5858 5857 5857 5858 5858 5859 5859 5859 5862 5867 5869 5872 5872 5865 5864 5865 5863 5863 5864 5863 5865 5866 5866 5868 5869 5870 5869 5868 5869 5870 5870 5870 5870 5871 5871 5870 5868 5866 5867 5868 5868 5869 5869 5870 5871 5871 5872 5873 5874 5874 5874 5875 5876
5840 5840 5839 5839 5839 5839 5839 5840 5840 5840 5840 5840 5841 5844 5845 5846 5847 5848 5848 5849 5851 5853 5855 5855 5853 5854 5856 5856 5857 5857 5858 5859 5858 5856 5857 5858 5856 5857 5858 5858 5859 5860 5859 5860 5865 5868 5871 5871 5865 5862 5864 5863 5862 5863 5864 5864 5865 5866 5868 5868 5868 5868 5868 5868 5869 5869 5869 5870 5870 5870 5870 5869 5867 5866 5866 5866 5867 5868 5869 5869 5870 5870 5871 5872 5872 5872 5872 5874
5836 5836 5835 5835 5835 5835 5836 5836 5836 5836 5836 5837 5838 5841 5841 5842 5844 5844 5844 5845 5848 5849 5849 5852 5854 5852 5854 5857 5858 5858 5858 5858 5858 5857 5857 5858 5857 5856 5857 5858 5858 5859 5860 5860 5862 5865 5867 5868 5866 5862 5863 5863 5861 5862 5863 5863 5864 5865 5866 5866 5866 5867 5867 5867 5868 5869 5869 5869 5869 5869 5870 5869 5866 5864 5865 5865 5866 5867 5867 5868 5868 5869 5869 5870 5871 5871 5871 5873
5833 5833 5832 5832 5832 5832 5832 5833 5833 5832 5833 5834 5836 5837 5837 5838 5839 5840 5841 5840 5843 5846 5846 5848 5852 5851 5852 5854 5857 5860 5859 5857 5858 5858 5858 5858 5858 5857 5857 5857 5858 5858 5859 5859 5861 5863 5864 5866 5866 5865 5864 5863 5861 5861 5863 5864 5864 5864 5865 5865 5866 5866 5866 5866 5868 5868 5868 5869 5870 5870 5870 5868 5864 5864 5864 5865 5865 5865 5866 5866 5867 5867 5868 5869 5870 5871 5871 5871
5830 5830 5829 5829 5829 5829 5829 5829 5829 5829 5830 5831 5832 5833 5833 5834 5835 5836 5837 5836 5838 5842 5843 5844 5848 5849 5850 5851 5854 5858 5858 5857 5857 5857 5858 5858 5857 5857 5857 5857 5858 5858 5857 5858 5859 5861 5863 5864 5864 5864 5862 5862 5861 5861 5862 5863 5864 5863 5864 5865 5866 5866 5866 5866 5866 5867 5868 5869 5869 5870 5870 5866 5863 5864 5864 5863 5864 5864 5864 5865 5866 5866 5866 5867 5868 5868 5869 5869
5827 5827 5826 5826 5826 5826 5826 5826 5826 5826 5827 5827 5828 5829 5830 5830 5832 5832 5833 5834 5835 5838 5839 5840 5843 5844 5845 5848 5851 5855 5856 5856 5856 5856 5857 5858 5856 5857 5856 5855 5857 5857 5855 5856 5858 5859 5861 5862 5863 5862 5861 5862 5863 5862 5861 5863 5864 5863 5864 5865 5865 5865 5865 5865 5866 5866 5866 5867 5867 5867 5867 5863 5862 5864 5863 5862 5862 5863 5863 5863 5864 5865 5863 5864 5865 5865 5866 5867
5823 5824 5824 5823 5823 5823 5823 5823 5823 5823 5824 5824 5824 5825 5826 5826 5828 5829 5829 5830 5832 5834 5834 5836 5839 5840 5840 5842 5846 5850 5852 5855 5855 5854 5855 5857 5857 5857 5856 5854 5853 5854 5855 5856 5856 5857 5859 5860 5861 5862 5861 5862 5863 5862 5862 5864 5863 5861 5862 5863 5863 5864 5864 5863 5864 5864 5863 5865 5865 5865 5864 5861 5862 5863 5862 5861 5861 5862 5862 5862 5863 5863 5861 5861 5862 5862 5864 5865
5820 5820 5820 5820 5820 5820 5820 5820 5820 5820 5820 5821 5821 5821 5822 5822 5824 5825 5826 5827 5828 5829 5830 5832 5835 5837 5838 5839 5841 5844 5847 5850 5853 5854 5854 5856 5856 5856 5856 5854 5852 5853 5857 5858 5856 5856 5857 5857 5859 5860 5859 5859 5860 5860 5860 5860 5859 5858 5860 5862 5862 5864 5865 5864 5864 5862 5862 5863 5864 5863 5862 5860 5860 5861 5860 5860 5861 5861 5861 5860 5861 5862 5861 5859 5860 5861 5862 5862
5817 5816 5817 5817 5817 5817 5817 5817 5817 5817 5817 5817 5817 5818 5818 5818 5820 5822 5822 5823 5824 5825 5827 5828 5831 5833 5834 5835 5838 5840 5842 5844 5848 5851 5853 5854 5855 5856 5856 5853 5851 5852 5855 5857 5856 5856 5856 5855 5855 5857 5857 5856 5856 5857 5856 5856 5856 5857 5859 5860 5859 5860 5861 5862 5862 5861 5860 5861 5861 5861 5861 5858 5858 5858 5858 5858 5859 5859 5859 5858 5858 5859 5858 5858 5858 5859 5860 5860
5814 5814 5814 5814 5814 5814 5814 5814 5813 5813 5813 5814 5814 5815 5814 5815 5817 5818 5818 5819 5821 5822 5823 5824 5826 5828 5830 5831 5833 5836 5838 5840 5843 5846 5847 5849 5851 5853 5853 5851 5849 5849 5850 5852 5853 5853 5854 5854 5852 5853 5855 5854 5853 5854 5854 5855 5856 5856 5858 5859 5858 5857 5857 5858 5859 5858 5858 5858 5857 5858 5858 5856 5855 5856 5857 5857 5857 5858 5858 5857 5856 5856 5856 5856 5856 5857 5857 5857
5810 5810 5810 5810 5810 5811 5810 5810 5810 5810 5809 5810 5810 5811 5811 5812 5813 5813 5815 5816 5816 5817 5819 5821 5822 5823 5825 5827 5828 5831 5833 5835 5836 5839 5841 5844 5847 5850 5850 5849 5847 5845 5845 5847 5848 5848 5851 5853 5851 5850 5851 5852 5851 5851 5851 5853 5854 5854 5855 5857 5857 5857 5856 5856 5856 5857 5856 5856 5856 5856 5856 5855 5854 5854 5855 5856 5855 5855 5855 5854 5854 5854 5853 5854 5854 5854 5854 5854
5807 5807 5807 5806 5806 5807 5807 5806 5806 5807 5806 5806 5806 5807 5808 5809 5810 5810 5810 5812 5813 5813 5815 5816 5817 5819 5821 5823 5824 5826 5828 5829 5831 5834 5836 5839 5843 5847 5848 5847 5844 5842 5842 5845 5845 5844 5846 5849 5850 5849 5848 5848 5849 5849 5850 5852 5853 5853 5855 5856 5856 5856 5855 5854 5854 5854 5854 5854 5855 5854 5853 5854 5854 5853 5853 5854 5853 5852 5851 5851 5853 5853 5852 5852 5852 5852 5852 5852
5802 5802 5803 5803 5802 5803 5803 5802 5802 5804 5803 5802 5803 5804 5805 5806 5807 5807 5806 5807 5808 5808 5810 5812 5813 5815 5817 5819 5819 5821 5823 5824 5826 5829 5831 5834 5838 5843 5845 5844 5841 5839 5840 5842 5843 5842 5842 5845 5847 5848 5848 5847 5847 5848 5850 5850 5851 5853 5856 5857 5857 5856 5854 5852 5852 5852 5852 5852 5853 5852 5851 5852 5852 5852 5851 5851 5851 5851 5849 5849 5850 5851 5850 5850 5850 5850 5850 5850
5798 5798 5799 5799 5798 5798 5799 5798 5798 5800 5799 5799 5799 5800 5801 5802 5803 5804 5803 5803 5804 5804 5806 5808 5809 5811 5813 5814 5815 5817 5819 5820 5822 5825 5828 5831 5834 5837 5839 5840 5839 5837 5837 5839 5840 5840 5840 5842 5844 5846 5848 5847 5846 5847 5848 5849 5850 5853 5855 5855 5856 5855 5854 5851 5850 5850 5850 5850 5850 5850 5850 5850 5850 5850 5850 5849 5849 5849 5848 5847 5847 5847 5848 5848 5848 5848 5848 5849
5794 5794 5794 5795 5794 5794 5794 5794 5794 5794 5795 5795 5796 5796 5797 5798 5799 5800 5800 5800 5801 5801 5802 5803 5805 5806 5809 5810 5811 5813 5815 5816 5818 5821 5824 5826 5829 5832 5834 5837 5838 5837 5835 5835 5837 5837 5838 5840 5841 5843 5845 5845 5844 5845 5846 5847 5850 5852 5852 5852 5853 5853 5852 5850 5848 5848 5848 5848 5848 5848 5848 5848 5848 5848 5848 5848 5848 5848 5847 5846 5844 5845 5845 5845 5846 5846 5846 5847
5788 5788 5789 5790 5790 5790 5790 5790 5790 5790 5790 5791 5792 5792 5793 5794 5795 5795 5796 5797 5797 5798 5799 5799 5800 5801 5804 5806 5808 5810 5810 5810 5812 5817 5818 5818 5821 5824 5827 5830 5833 5835 5835 5834 5834 5835 5836 5838 5839 5840 5841 5841 5842 5842 5843 5845 5847 5849 5849 5849 5848 5849 5848 5846 5845 5846 5845 5845 5846 5847 5846 5844 5845 5845 5846 5846 5846 5846 5846 5844 5843 5842 5843 5843 5843 5843 5844 5844
5783 5783 5783 5784 5785 5785 5785 5785 5785 5785 5786 5787 5787 5788 5789 5790 5790 5791 5792 5793 5793 5794 5795 5796 5796 5797 5799 5801 5802 5803 5803 5803 5806 5809 5808 5808 5812 5815 5819 5822 5825 5828 5832 5833 5832 5832 5834 5835 5836 5837 5837 5838 5839 5840 5841 5842 5843 5843 5845 5846 5844 5843 5843 5842 5842 5843 5842 5842 5844 5844 5842 5841 5843 5844 5843 5844 5844 5843 5843 5842 5841 5841 5841 5841 5841 5841 5842 5842